Tracking 17155 objects as of 28-July-2015
HD Live streaming from Space Station

COSMOS 2128

Track COSMOS 2128 now!
10-day predictions
COSMOS 2128 is classified as:


NORAD ID: 21103
Int'l Code: 1991-009D
Perigee: 1,451.9 km
Apogee: 1,475.8 km
Inclination: 74.0 °
Period: 115.0 minutes
Semi major axis: 7834 km
RCS: 0.6873 m2 (medium)
Launch date: February 12, 1991
Source: Commonwealth of Independent States (former USSR) (CIS)
Your satellite tracking list
Your tracking list is empty





NASA's NSSDC Master Catalog

Two Line Element Set (TLE):
1 21103U 91009D   15208.03484828 -.00000017  00000-0 -84169-5 0  9992
2 21103 074.0297 163.0796 0015267 316.3474 111.8255 12.51867993117585

Source of the keplerian elements: AFSPC

N2YO: 291